Regional Weather Roundup
Issued by NWS Boston, MA

Current Version | Previous Version | Text Only | Print | Product List | Glossary Off
Versions: 1 2 3 4 5 6 7 8 9 10 11 12 13 14 15 16 17 18 19 20 21 22 23 24 25 26 27 28 29 30 31 32 33 34 35 36 37 38 39 40 41 42 43 44 45 46 47 48 49 50
000 ASUS41 KBOX 260510 RWRBOX REGIONAL WEATHER ROUNDUP NATIONAL WEATHER SERVICE TAUNTON MA 100 AM EDT WED APR 26 2017 NOTE: "FAIR" INDICATES FEW OR NO CLOUDS BELOW 12,000 FEET WITH NO SIGNIFICANT WEATHER AND/OR OBSTRUCTIONS TO VISIBILITY. MAZALL-260600- EASTERN MASSACHUSETTS CITY SKY/WX TMP DP RH WIND PRES REMARKS BOSTON HVY RAIN 47 47 100 N10 30.04F FOG BEVERLY RAIN 47 46 97 NE10 30.05F FOG LAWRENCE LGT RAIN 47 45 93 NE9 30.08F FOG BEDFORD LGT RAIN 46 43 89 NE8 30.04F BLUE HILL N/A 47 46 97 NE13 30.01F NORWOOD LGT RAIN 50 48 93 VRB6 30.02F FOG MARSHFIELD LGT RAIN 50 50 100 VRB3 30.02S VSB 1/2 PLYMOUTH RAIN 55 54 96 E5 30.00F FOG TAUNTON LGT RAIN 51 50 96 CALM 29.99F FOG NEW BEDFORD LGT RAIN 54 53 97 E8 29.97F FOG $$ MAZALL-260600- CAPE COD AND THE ISLANDS CITY SKY/WX TMP DP RH WIND PRES REMARKS FALMOUTH CLOUDY N/A N/A N/A MISG 30.01 FOG HYANNIS LGT RAIN 52 52 100 E12G20 29.97F FOG CHATHAM LGT RAIN 51 51 100 SE13G24 30.02F VSB 1/2 PROVINCETOWN CLOUDY 53 53 100 SE16G24 30.01F NANTUCKET FOG 52 51 97 E21 29.97F VSB 3/4 MARTHAS VNYRD CLOUDY 55 53 93 E25G32 29.96F FOG $$ MAZALL-260600- CENTRAL AND WESTERN MASSACHUSETTS CITY SKY/WX TMP DP RH WIND PRES REMARKS WORCESTER LGT RAIN 43 41 93 NE13 30.00F VSB 1 FITCHBURG LGT RAIN 46 44 93 VRB6 30.06F FOG ORANGE CLOUDY 46 44 93 NE7G18 30.02F SPRINGFIELD LGT RAIN 48 45 91 NE10 29.98F WESTFIELD RAIN 47 47 100 N12 29.98F FOG NORTH ADAMS LGT RAIN 49 45 86 SE14 29.97F PITTSFIELD LGT RAIN 47 44 90 E6 29.94F $$ RIZALL-260600- RHODE ISLAND CITY SKY/WX TMP DP RH WIND PRES REMARKS PROVIDENCE LGT RAIN 51 51 100 N9 29.99F FOG NEWPORT LGT RAIN 55 55 100 E13G21 29.95F FOG SMITHFIELD LGT RAIN 48 47 96 NE12 29.99F FOG WESTERLY LGT RAIN 57 56 96 NE12 29.93F FOG $$ CTZALL-260600- CONNECTICUT CITY SKY/WX TMP DP RH WIND PRES REMARKS BRADLEY INTL LGT RAIN 48 47 96 N13 29.97F HARTFORD LGT RAIN 49 48 97 N8 29.96F FOG BRIDGEPORT LGT RAIN 55 51 86 NE14 29.87F DANBURY LGT RAIN 49 49 100 NE10 29.90F FOG GROTON RAIN 57 56 96 NE14 29.90F FOG NEW HAVEN CLOUDY 53 52 96 N7 29.89F CHESTER LGT RAIN 52 52 100 NE7 29.90F MERIDEN RAIN 50 48 93 NE12G24 29.93F FOG WILLIMANTIC LGT RAIN 52 50 93 NE6 29.96F FOG OXFORD CLOUDY 48 45 87 NE13G21 29.91F $$ MEZ002-015-021-024-NHZ003-005-008-011-012-014-VTZ005-008-260600- NORTHERN NEW ENGLAND CITY SKY/WX TMP DP RH WIND PRES REMARKS PORTLAND ME LGT RAIN 45 43 93 NE12 30.14F FOG BANGOR ME LGT RAIN 44 41 89 E8 30.23F CONCORD NH LGT RAIN 45 43 93 N7 30.10F FOG MANCHESTER NH LGT RAIN 45 42 89 N10 30.07F FOG NASHUA NH LGT RAIN 44 44 100 N6 30.08F FOG PORTSMOUTH NH LGT RAIN 44 43 96 N9 30.08F FOG JAFFREY NH LGT RAIN 44 44 100 VRB5 30.05F KEENE NH LGT RAIN 46 44 93 NE8 30.04F BURLINGTON VT CLOUDY 51 47 86 CALM 30.03F MT. WASHINGTON RAIN 37 37 100 SE64G74 N/A VSB 0 WCI 20 $$ NYZ052-076-260600- EASTERN NEW YORK CITY SKY/WX TMP DP RH WIND PRES REMARKS ALBANY LGT RAIN 50 48 93 N7 29.96F NEW YORK CITY CLOUDY 53 50 89 NE25G32 29.81F FOG $$ ANZALL-260600- MARINE OBSERVATIONS STATION/POSITION TIME TEMP WIND PRES VSBY WAVE AIR SEA DIR/SP/G HT/PER (UTC) (F) (DEG/KT/KT) (MB) (MI) (FT/S) BOSTON BUOY 0350 48 46 90/ 6/ 8 1016.6 6/ 7 BUZZARDS BAY 0400 51 110/ 22/ 24 1014.8F NANTUCKET SOUND 0450 48 1014.7F 3/ 4 MASS BAY-STELLWA 0404 48 45 110/ 8/ 10 1016.8F ISLE OF SHOALS 0400 44 20/ 20/ 23 1018.8F S OF BLOCK IS 0455 47 N/A 9/12 $$ ......................KEY......................... SKY/WX - SKY CONDITION/PRESENT WEATHER TMP - TEMPERATURE IN FAHRENHEIT DWPT - DEWPOINT IN FAHRENHEIT RH - RELATIVE HUMIDITY IN PERCENT WIND - DIRECTION AND SPEED IN MPH PRES - MEAN SEA LEVEL PRESSURE IN INCHES OF HG WCI - WIND CHILL INDEX VSB - VISIBILITY IN MILES HX - HEAT INDEX TC - TEMPERATURE IN CELSIUS VRB - VARIABLE WIND DIRECTION N/A - NOT AVAILABLE

USA.gov is the U.S. government's official web portal to all federal, state and local government web resources and services.